SCP
0 0 0 0 0 0 0 0 0 0 0 0 0 0 0 0 0 0 0 0 0 0 0 0 0 0 0 0 0 0 0 0 0 0 0 0 0 0 0 0 0 0 0 0 0 0 0 0 0 0 0 0 0 0
0 0 0 0 0 0 0 0 0 0 0 0 0 0 0 0 0 0 0 0 0 0 0 0 0 0 0 0 0 0 0 0 0 0 0 0 0 0 0 0 0 0 0 0 0 0 0 0 0 0 0 0 0 0
0 0 0 0 0 0 0 0 0 0 0 0 0 0 0 0 0 0 0 0 0 0 0 0 0 0 0 0 0 0 0 0 0 0 0 0 0 0 0 0 0 0 0 0 0 0 0 0 0 0 0 0 0 0
0 0 0 0 0 0 0 0 0 0 0 0 0 0 0 0 0 0 0 0 0 0 -0 0 0 0 0 0 0 0 0 0 0 0 0 0 0 0 0 0 0 0 0 0 0 0 0 0 0 0 0 0 0 0
0 0 0 0 0 0 0 0 0 0 0 0 0 0 0 0 0 0 0 0 0 0 0 0 0 0 0 0 0 0 0 0 0 0 0 0 0 0 0 0 0 0 0 0 0 0 0 0 0 0 0 0 0 0
0 -0 0 0 0 0 0 0 0 0 0 0 0 0 0 0 0 0 0 0 0 0 0 0 0 0 0 0 0 0 0 0 0 0 0 0 0 0 0 0 0 0 0 0 0 0 0 0 0 0 0 0 0 0
0 0 0 -0 -0 0 0 -0 0 0 0 0 0 0 0 0 0 0 0 0 0 0 0 0 0 0 0 0 0 0 0 0 0 0 0 0 0 0 0 0 0 0 0 0 0 0 0 0 0 0 0 0 0 0
0 0 0 0 0 0 0 0 0 0 0 0 0 0 0 0 0 0 0 0 0 0 0 0 0 0 0 0 0 0 0 0 0 0 0 0 0 0 0 0 0 0 0 0 0 0 0 0 0 0 0 0 0 0
-0 -0 0 0 -0 0 0 0 0 0 0 0 0 0 0 0 0 0 0 0 -0 0 0 0 0 0 0 0 0 0 0 0 0 0 0 0 0 0 0 0 0 0 0 0 0 0 0 0 0 0 0 0 0 0
0 -0 0 0 0 0 0 0 0 0 0 0 0 0 0 0 0 0 0 0 0 0 0 0 0 0 0 0 0 0 0 0 0 0 0 0 0 0 0 0 0 0 0 0 0 0 0 0 0 0 0 0 0 0
-0 0 0 0 0 0 0 0 0 0 0 0 0 0 0 0 0 0 0 0 0 0 0 0 0 0 0 0 0 0 0 0 0 0 0 0 0 0 0 0 0 0 0 0 0 0 0 0 0 0 0 0 0 0
-0 -0 0 0 0 -0 0 0 0 0 0 0 0 0 0 0 0 0 0 0 0 0 0 0 0 0 0 0 0 0 0 0 0 0 0 0 0 0 0 0 0 0 0 0 0 0 0 0 0 0 0 0 0 0
-0 0 0 0 0 0 -0 0 0 0 0 0 0 0 0 0 0 0 0 0 0 -0 0 0 0 0 0 0 0 0 0 0 0 0 0 0 0 0 0 0 0 0 0 0 0 0 0 0 0 0 0 0 0 0
-0 -0 -0 0 -0 -0 -0 0 0 0 0 0 0 0 0 0 0 0 0 0 0 0 -0 0 0 0 0 0 0 0 0 0 0 0 0 0 0 0 0 0 0 0 0 0 0 0 0 0 0 0 0 0 0 0
-0 -0 0 0 0 0 0 0 0 0 0 0 0 0 0 0 0 0 -0 -0 -0 -0 -0 0 0 0 0 0 0 0 0 0 0 0 0 0 0 0 0 0 0 0 0 0 0 0 0 0 0 0 0 0 0 0
0 0 0 0 0 0 0 0 0 0 0 0 0 0 0 0 0 -0 -0 -0 -0 -0 -0 0 0 0 0 0 0 0 0 0 0 0 0 0 0 0 0 0 0 0 0 0 0 0 0 0 0 0 0 0 0 0
-0 0 -0 0 0 0 0 0 0 0 0 0 0 0 0 0 0 -0 -0 -0 -0 -0 -0 0 0 0 0 0 0 0 0 0 0 0 0 0 0 0 0 0 0 0 0 0 0 0 0 0 0 0 0 0 0 0
0 0 0 0 0 0 0 0 0 0 0 0 0 0 0 0 -0 -0 -0 -0 0 0 -0 -0 -0 0 0 0 0 0 0 0 0 0 0 0 0 0 0 0 0 0 0 0 0 0 0 0 0 0 0 0 0 0
0 0 -0 -0 0 0 0 0 0 0 0 0 0 0 0 0 -0 -0 -0 -0 0 0 0 0 0 0 0 0 0 0 0 0 0 0 0 0 0 0 0 0 0 0 0 0 0 0 0 0 0 0 0 0 0 0
0 -0 -0 -0 -0 0 0 0 0 0 0 0 0 0 0 0 -0 -0 0 0 0 0 0 0 0 -0 0 0 0 0 0 0 0 0 0 0 0 0 0 0 0 0 0 0 0 0 0 0 0 0 0 0 0 0
-0 -0 -0 -0 0 0 0 0 0 0 0 0 0 0 0 0 -0 0 0 0 0 0 0 0 0 0 0 0 0 0 0 0 0 0 0 0 0 0 0 0 0 0 0 0 0 0 0 0 0 0 0 0 0 0
0 -0 0 -0 0 0 0 0 0 0 0 0 0 0 0 0 -0 -0 -0 0 0 0 0 0 0 0 0 0 0 0 0 0 0 0 0 0 0 0 0 0 0 0 0 0 0 0 0 0 0 0 0 0 0 0
0 0 0 0 0 -0 0 0 0 0 0 0 0 0 0 -0 0 -0 -0 0 0 0 0 0 0 0 -0 0 0 0 0 0 0 0 0 0 0 0 0 0 0 0 0 0 0 0 0 0 0 0 0 0 0 0
0 0 0 0 0 0 0 0 -0 0 -0 0 0 0 0 0 -0 0 0 -0 0 0 0 0 0 0 0 0 0 0 0 0 0 0 0 0 0 0 0 0 0 0 0 0 0 0 0 0 0 0 0 0 0 0
-0 -0 0 0 0 0 0 0 0 -0 -0 -0 0 0 0 0 -0 0 0 0 -0 -0 0 0 0 0 0 0 0 0 0 0 0 0 0 0 0 0 0 0 0 0 0 0 0 0 0 0 0 0 0 0 0 0
0 0 0 0 0 0 -0 0 -0 0 0 0 0 0 0 0 0 0 -0 0 -0 -0 -0 -0 0 0 0 0 0 0 0 0 0 0 0 0 0 0 0 0 0 0 0 0 0 0 0 0 0 0 0 0 0 0
0 0 0 0 0 0 0 -0 0 -0 -0 0 0 0 0 0 0 0 -0 -0 -0 -0 0 0 0 0 0 0 0 0 0 0 0 0 0 0 0 0 0 0 0 0 0 0 0 0 0 0 0 0 0 0 0 0
0 0 0 0 0 0 0 0 -0 -0 0 0 0 0 -0 -0 -0 0 -0 -0 -0 -0 -0 0 0 0 0 0 0 0 0 0 0 0 0 0 0 0 0 0 0 0 0 0 0 0 0 0 0 0 0 0 0 0
0 0 0 0 0 0 0 0 0 0 0 0 -0 -0 -0 -0 0 0 0 -0 -0 -0 0 0 0 0 0 0 0 0 0 0 -0 -0 -0 0 0 0 0 0 0 0 0 0 0 0 0 0 0 0 0 0 0 0
0 0 0 0 0 0 0 0 0 0 0 0 0 0 0 0 0 0 0 -0 -0 -0 0 0 0 0 0 0 0 0 0 0 -0 -0 -0 -0 -0 -0 0 0 0 0 0 0 0 0 0 0 0 0 0 0 0 0
0 0 0 0 0 0 0 0 0 0 0 0 0 0 0 0 0 0 0 0 0 0 0 -0 0 0 0 0 0 0 0 0 -0 -0 -0 -0 -0 -0 -0 -0 0 0 0 0 0 0 0 0 0 0 0 0 0 0
0 0 0 0 0 0 0 0 0 0 0 0 0 0 0 0 0 0 0 0 0 0 0 0 0 0 0 0 0 0 0 0 0 -0 -0 -0 -0 -0 -0 0 0 0 0 0 0 0 -0 -0 0 0 0 0 0 0
0 0 0 0 0 0 0 0 0 0 0 0 0 0 0 0 0 0 0 0 0 0 0 0 0 0 0 0 0 0 0 0 0 -0 -0 -0 -0 0 0 0 0 -0 -0 -0 -0 -0 -0 -0 -0 0 0 0 0 0
Wind_Speed_500mb
59 56 62 59 64 62 65 60 62 58 57 59 65 69 63 66 71 54 58 91 108 42 63 69 85 51 41 57 15 32 18 9 6 11 11 11 12 16 7 18 19 24 25 11 10 10 28 37 20 17 15 8 25 44
55 57 57 63 64 64 63 62 60 58 63 65 62 60 69 68 69 67 66 58 63 71 43 60 92 103 98 89 73 68 22 27 38 11 11 8 9 7 12 13 15 11 18 18 30 22 8 80 32 70 20 16 26 39
67 64 63 60 62 62 63 65 62 59 64 65 62 57 59 60 65 44 45 52 64 56 54 65 82 102 101 101 84 42 30 36 36 28 16 7 9 10 14 17 6 13 32 9 6 20 34 60 77 73 50 56 53 43
80 76 70 63 57 61 61 63 64 66 63 65 63 61 57 58 58 59 48 46 43 20 13 33 59 95 78 103 98 91 77 68 53 45 13 7 8 27 10 6 16 17 31 21 20 31 32 45 72 98 89 81 83 85
78 79 78 72 64 60 63 65 66 66 66 64 65 61 50 54 56 61 60 60 65 35 6 10 23 46 68 87 104 96 78 62 53 20 8 10 11 10 2 4 11 25 16 21 22 24 44 40 63 70 75 76 70 73
72 70 76 73 73 69 68 66 64 67 64 65 63 58 50 48 51 43 36 55 66 62 14 9 23 39 47 82 97 99 91 67 46 28 11 16 21 24 11 12 37 66 77 83 46 46 51 59 41 52 58 64 60 55
75 73 64 66 69 72 73 65 63 62 62 62 60 50 53 53 50 56 20 21 23 26 27 7 8 35 63 71 69 64 76 53 42 25 22 20 17 31 5 13 66 62 83 94 92 79 68 87 66 72 68 67 58 62
77 75 73 69 69 76 84 60 54 45 49 48 47 44 43 48 50 57 70 77 66 26 19 10 7 12 59 24 20 45 25 31 27 18 21 9 26 13 10 57 128 67 66 69 78 85 96 87 71 76 72 65 72 68
68 63 64 60 59 53 26 37 39 33 38 42 40 37 32 35 34 61 58 60 56 42 11 7 19 16 53 20 21 19 21 7 17 10 9 25 10 13 40 56 75 71 72 58 63 75 84 91 93 89 85 81 85 83
67 57 50 47 39 31 31 39 39 36 38 37 37 18 8 21 42 32 36 18 24 30 28 12 24 7 45 22 9 13 19 9 11 11 28 10 13 77 66 103 81 48 51 74 71 64 79 82 90 90 90 82 85 82
41 36 30 34 27 24 25 21 25 23 23 28 10 11 12 15 15 17 14 13 18 10 20 31 47 9 27 20 14 23 10 12 13 11 19 11 8 47 113 123 99 82 69 68 73 76 77 78 82 78 79 76 74 68
27 21 20 17 16 7 9 15 19 22 2 13 11 6 9 11 9 9 9 7 7 10 13 18 21 30 11 14 8 14 12 13 14 26 13 10 20 92 90 82 73 76 80 93 96 101 107 100 98 93 88 82 76 69
34 34 30 21 13 9 8 10 13 15 16 11 5 4 5 9 12 8 9 8 5 11 31 31 22 35 22 21 5 12 15 10 19 14 11 10 35 21 33 42 48 42 48 64 78 80 83 83 80 77 71 61 63 62
19 17 17 15 13 7 5 7 8 17 12 8 9 6 7 6 7 5 2 4 9 23 30 39 16 14 21 12 5 12 8 10 11 17 14 6 18 18 4 4 12 28 46 50 54 55 60 59 57 51 51 44 47 54
7 11 13 11 8 10 14 13 6 7 7 6 6 8 9 16 21 16 14 8 22 36 44 31 24 16 10 8 9 5 11 10 11 10 5 20 28 27 25 10 5 15 18 21 25 29 33 37 41 43 36 33 34 36
6 2 20 11 7 5 1 4 11 9 7 13 8 6 17 4 9 15 33 11 34 46 25 11 10 10 12 10 10 15 18 12 5 8 29 39 37 33 37 27 16 27 30 27 28 31 34 35 37 37 33 33 32 28
5 9 9 3 5 1 2 1 5 8 5 5 5 19 12 11 10 11 24 29 39 23 3 1 10 7 15 10 12 13 11 9 30 42 42 41 48 50 44 33 27 34 34 30 31 31 36 35 30 33 32 30 28 31
11 9 13 11 4 2 2 4 2 4 11 18 9 19 20 26 18 18 30 36 20 15 14 6 9 14 7 9 10 10 19 50 43 47 58 56 53 40 42 42 39 42 38 32 32 34 36 30 28 24 27 30 33 36
18 19 15 9 3 3 4 8 10 8 15 10 14 18 17 13 28 32 39 23 9 14 8 11 11 8 7 5 15 42 50 49 60 72 66 47 27 47 46 43 43 40 36 35 33 35 29 22 22 23 29 33 37 36
16 15 13 9 6 6 9 12 11 12 9 13 21 16 11 11 30 27 41 32 25 13 15 10 6 12 21 43 48 53 61 58 57 62 61 53 50 51 45 44 44 42 41 36 29 26 20 20 24 27 31 33 35 35
10 12 7 3 10 21 16 14 16 12 11 11 18 13 10 13 22 33 28 27 22 15 6 12 29 44 47 53 44 41 48 42 47 47 60 74 59 53 48 41 40 40 42 37 36 24 17 21 21 26 30 31 32 32
11 9 11 21 18 14 19 28 12 14 12 10 15 15 12 8 15 20 17 32 13 11 22 34 47 56 61 54 43 35 37 42 47 44 40 42 51 52 46 40 39 43 36 29 30 24 17 16 16 23 30 34 33 31
8 13 21 29 16 26 12 24 14 21 11 14 18 9 8 11 21 17 11 11 9 29 41 45 53 49 48 40 39 38 38 44 48 45 43 46 46 41 35 30 26 33 34 20 20 19 14 10 15 24 29 35 39 40
22 21 23 21 32 14 19 20 16 16 16 10 10 9 10 15 27 11 6 4 22 41 49 61 63 65 54 45 46 45 46 47 45 37 32 43 50 36 25 24 19 20 24 21 17 17 8 11 21 29 37 41 47 52
19 30 21 18 25 20 14 12 12 10 7 10 11 8 9 19 6 7 5 19 45 55 64 67 63 55 52 59 56 50 41 42 43 44 35 42 46 36 25 19 19 27 22 13 8 9 5 19 28 34 39 44 51 55
18 24 14 24 14 11 8 10 9 8 6 10 9 16 13 6 9 5 5 35 40 57 65 64 62 65 59 53 63 64 55 40 32 27 28 31 37 39 36 34 25 19 19 15 15 15 22 28 35 42 49 53 56 58
14 10 16 17 11 11 9 7 6 6 9 10 7 9 7 10 6 8 28 35 55 59 52 43 42 45 48 51 46 42 38 26 19 18 22 27 28 30 34 38 38 35 23 13 14 21 31 41 47 51 57 57 55 54
11 19 5 29 13 15 3 5 6 8 5 14 12 11 6 6 6 20 28 52 50 49 43 35 33 34 35 37 42 48 39 28 16 7 11 21 26 23 22 25 27 30 25 15 23 32 40 47 54 58 59 61 59 52
7 31 16 12 11 8 11 8 9 11 17 8 5 4 6 7 17 25 45 43 40 41 43 42 39 33 32 36 43 52 52 49 56 59 57 55 52 45 38 34 33 38 45 43 39 41 45 51 56 58 61 64 65 63
16 34 13 13 6 6 7 14 14 19 12 10 8 9 11 14 14 27 44 41 38 35 37 41 44 45 47 48 48 53 57 59 64 62 54 53 48 43 45 46 47 49 52 54 57 61 62 66 70 72 72 72 69 68
21 19 11 7 7 7 24 25 14 14 10 8 9 10 13 13 14 18 33 36 30 30 30 33 39 45 48 54 54 50 55 55 56 58 49 49 50 50 52 52 54 55 58 62 65 67 67 69 69 67 65 64 62 60
12 11 10 6 8 15 19 25 14 9 6 6 6 8 8 7 7 16 28 36 32 33 32 32 34 37 41 41 39 41 42 44 46 53 52 49 49 47 46 48 49 49 50 52 56 58 58 61 62 61 60 58 55 54
10 11 8 10 10 9 14 26 6 13 8 7 6 10 9 6 6 12 26 32 32 33 34 32 31 30 33 36 34 32 33 36 35 35 39 41 40 39 40 41 41 39 39 44 49 49 51 52 55 54 53 51 50 48
Wind_Direction_500mb
283 285 285 280 275 274 272 270 264 259 265 267 262 257 255 258 243 240 243 239 226 237 230 212 205 185 174 184 167 144 119 175 163 184 189 184 205 198 185 161 175 167 171 186 187 215 270 159 126 188 214 234 216 197
286 285 289 286 278 273 271 273 269 268 260 264 261 256 251 255 257 257 258 236 237 228 236 238 231 229 224 226 203 169 191 158 170 172 194 165 192 168 171 230 172 214 195 179 196 210 211 179 207 215 224 238 223 221
280 281 284 292 281 274 271 271 269 267 267 268 263 261 253 251 251 247 265 253 253 254 259 238 229 234 229 230 227 182 216 187 192 157 141 192 208 157 179 235 136 235 220 227 104 221 234 210 230 242 243 247 255 250
275 275 277 278 284 276 271 271 269 266 265 266 267 258 256 260 261 252 257 261 245 229 228 248 251 233 234 219 221 218 225 198 195 169 155 159 198 190 206 244 205 194 162 199 256 262 289 255 242 253 254 258 261 264
275 273 273 273 272 275 272 269 268 266 263 264 264 258 252 255 256 263 260 262 236 243 267 216 233 244 229 223 220 218 217 188 169 168 185 190 184 157 188 58 248 192 179 195 229 184 213 243 253 262 255 259 268 269
282 275 269 266 267 273 272 275 267 261 258 258 259 255 251 255 258 264 274 273 253 232 263 241 241 232 225 220 219 214 212 191 183 168 189 197 190 181 168 202 246 226 221 221 232 238 249 257 253 255 264 267 269 263
278 274 268 263 266 268 267 271 268 260 254 250 249 248 251 252 245 239 223 185 112 226 239 238 238 203 214 203 209 208 199 198 198 192 191 159 171 183 211 226 250 228 231 231 237 242 252 249 253 264 266 271 270 266
272 265 263 260 265 273 272 256 259 253 242 241 243 248 250 243 245 249 252 243 258 287 252 209 218 165 183 174 164 192 186 199 204 194 165 158 137 186 228 239 248 243 242 242 236 239 244 258 258 261 263 264 264 263
273 261 256 256 259 275 241 244 252 253 248 248 243 246 241 242 249 252 263 259 263 229 282 259 173 190 175 158 157 138 151 177 196 207 187 150 156 200 226 243 249 243 232 240 244 243 250 251 256 259 261 265 266 267
259 252 248 243 252 242 239 248 247 249 247 242 234 191 176 234 265 247 248 221 208 222 207 265 303 185 174 155 154 129 159 192 191 208 152 215 220 236 241 239 243 244 237 236 237 236 242 243 250 258 261 268 269 274
216 216 226 215 208 239 252 234 235 234 226 192 140 156 220 258 252 206 210 223 193 196 200 225 230 246 197 175 163 193 161 164 195 182 181 196 235 236 239 241 241 245 245 242 244 247 255 262 266 266 271 272 274 273
106 133 152 170 180 172 239 232 206 199 173 127 139 203 258 215 246 245 187 253 211 209 203 206 204 185 227 176 146 173 187 178 200 145 183 192 239 237 242 245 249 242 242 247 250 256 260 260 264 268 270 272 273 278
89 101 109 109 99 113 132 123 157 170 171 148 151 220 243 189 222 228 204 258 180 360 17 333 217 173 181 238 181 172 187 188 131 170 188 214 249 264 265 263 257 247 244 253 255 260 264 266 269 268 271 278 280 277
76 80 100 118 111 92 129 139 163 174 165 166 162 247 186 248 247 237 90 15 15 350 354 339 311 211 172 191 187 172 151 136 185 175 201 225 28 352 324 72 213 224 234 242 251 261 268 271 272 275 275 277 273 272
61 68 82 48 6 354 212 186 180 195 177 198 195 214 222 234 273 296 2 40 6 345 338 333 287 241 170 169 176 172 168 190 187 176 169 13 5 353 344 359 324 283 251 251 265 275 273 273 271 270 268 269 264 261
149 82 40 33 37 58 145 222 228 203 207 194 225 307 325 24 318 41 9 31 348 345 349 310 272 249 207 156 168 188 170 184 174 12 349 347 344 345 340 342 338 303 295 282 282 287 289 276 276 268 259 252 243 240
228 85 9 13 55 158 295 131 191 200 252 236 128 49 23 54 35 58 13 349 344 334 70 298 294 343 299 318 129 16 22 4 328 327 333 333 332 331 331 336 336 311 300 293 290 285 284 280 264 258 241 227 220 217
44 12 346 351 348 37 79 169 287 357 55 23 40 21 48 41 12 27 6 356 6 355 344 43 335 33 30 352 335 348 323 321 321 319 320 325 331 338 337 331 327 323 317 310 303 293 284 278 266 242 216 207 205 205
2 355 349 351 356 118 77 45 35 77 42 50 63 37 57 68 28 25 16 27 51 54 76 48 45 22 348 357 320 321 318 317 316 317 319 333 333 325 330 332 328 326 325 320 309 294 279 267 253 219 205 203 200 199
336 346 353 8 173 113 73 42 47 59 47 12 23 34 64 48 14 12 18 34 50 52 44 43 37 337 303 302 306 304 299 308 310 313 319 327 334 335 338 339 339 338 334 328 321 310 288 267 243 221 203 199 205 199
354 23 26 43 60 59 67 29 44 37 10 48 7 31 47 29 19 9 15 17 58 38 30 348 323 314 310 307 309 312 308 313 303 300 301 313 330 333 336 341 339 342 338 338 337 322 296 264 235 222 210 197 192 191
51 66 62 52 56 58 59 24 21 7 20 9 18 19 35 25 359 13 3 41 59 21 345 325 324 322 323 325 328 328 325 324 324 321 325 327 324 332 332 340 344 341 343 339 332 322 292 269 236 218 199 186 180 175
70 50 55 34 58 36 11 18 44 18 19 355 2 29 22 9 354 1 73 63 52 350 346 340 339 341 334 336 337 339 343 337 337 340 341 340 339 335 329 336 345 337 339 351 338 331 300 240 207 196 186 171 165 159
61 51 33 34 24 9 355 22 20 4 19 16 0 10 3 341 342 48 74 71 347 345 348 350 350 347 350 352 350 349 345 339 340 347 353 350 343 347 344 342 344 349 350 4 4 344 314 174 174 175 169 164 153 150
64 18 29 4 13 14 21 8 351 17 11 349 358 359 346 338 20 48 8 339 339 346 348 348 349 344 334 340 344 343 345 344 338 341 3 356 351 359 14 18 17 12 10 13 32 53 127 153 161 161 157 153 146 140
65 25 38 5 0 26 339 10 16 351 332 350 3 333 336 344 39 339 331 337 338 338 344 345 340 337 343 353 339 340 351 353 346 348 3 1 4 8 13 16 18 30 43 62 102 141 146 146 147 147 142 141 142 141
48 342 354 2 333 339 354 6 354 47 5 6 341 336 5 36 315 285 323 343 335 348 349 345 342 342 342 345 351 2 357 344 342 352 6 13 17 20 26 27 26 21 33 70 128 150 152 148 146 142 136 132 130 131
52 10 1 331 2 9 9 359 34 9 356 345 333 16 111 204 266 326 328 342 346 351 356 360 359 1 1 4 16 23 29 42 45 45 61 52 50 54 64 68 71 67 67 97 132 141 143 140 137 134 131 125 120 117
10 349 349 340 355 24 40 24 4 6 343 352 330 304 283 285 322 336 353 354 357 358 6 13 25 33 39 38 38 43 41 54 57 52 49 43 45 49 62 69 78 87 95 100 109 114 120 122 120 118 115 113 111 112
356 356 2 359 30 356 345 356 327 331 335 329 310 301 288 293 328 359 4 3 6 10 12 15 22 26 30 36 41 46 47 47 49 46 38 39 40 50 64 74 81 89 96 100 104 107 110 111 110 109 108 109 109 107
343 350 334 313 289 316 337 338 340 339 338 322 315 277 287 308 326 350 2 5 5 10 17 24 28 27 32 36 38 43 48 51 54 55 49 54 58 62 67 76 83 89 95 100 103 105 106 105 104 104 104 104 103 102
332 351 346 331 303 316 329 348 333 321 295 295 284 310 310 289 289 335 355 4 11 17 21 22 27 31 36 39 37 39 41 45 49 58 57 57 60 64 70 75 79 85 91 95 97 98 100 100 101 101 101 100 99 98
322 345 334 316 308 325 334 339 297 317 260 272 296 332 339 314 291 348 355 3 9 13 17 21 24 27 33 35 35 37 43 50 55 58 67 65 64 66 71 75 78 83 88 92 94 96 96 96 96 96 95 96 96 95
Wind_Speed_850mb
59 56 62 59 64 62 65 60 62 58 57 59 65 69 63 66 71 54 58 91 108 42 63 69 85 51 41 57 15 32 18 9 6 11 11 11 12 16 7 18 19 24 25 11 10 10 28 37 20 17 15 8 25 44
55 57 57 63 64 64 63 62 60 58 63 65 62 60 69 68 69 67 66 58 63 71 43 60 92 103 98 89 73 68 22 27 38 11 11 8 9 7 12 13 15 11 18 18 30 22 8 80 32 70 20 16 26 39
67 64 63 60 62 62 63 65 62 59 64 65 62 57 59 60 65 44 45 52 64 56 54 65 82 102 101 101 84 42 30 36 36 28 16 7 9 10 14 17 6 13 32 9 6 20 34 60 77 73 50 56 53 43
80 76 70 63 57 61 61 63 64 66 63 65 63 61 57 58 58 59 48 46 43 20 13 33 59 95 78 103 98 91 77 68 53 45 13 7 8 27 10 6 16 17 31 21 20 31 32 45 72 98 89 81 83 85
78 79 78 72 64 60 63 65 66 66 66 64 65 61 50 54 56 61 60 60 65 35 6 10 23 46 68 87 104 96 78 62 53 20 8 10 11 10 2 4 11 25 16 21 22 24 44 40 63 70 75 76 70 73
72 70 76 73 73 69 68 66 64 67 64 65 63 58 50 48 51 43 36 55 66 62 14 9 23 39 47 82 97 99 91 67 46 28 11 16 21 24 11 12 37 66 77 83 46 46 51 59 41 52 58 64 60 55
75 73 64 66 69 72 73 65 63 62 62 62 60 50 53 53 50 56 20 21 23 26 27 7 8 35 63 71 69 64 76 53 42 25 22 20 17 31 5 13 66 62 83 94 92 79 68 87 66 72 68 67 58 62
77 75 73 69 69 76 84 60 54 45 49 48 47 44 43 48 50 57 70 77 66 26 19 10 7 12 59 24 20 45 25 31 27 18 21 9 26 13 10 57 128 67 66 69 78 85 96 87 71 76 72 65 72 68
68 63 64 60 59 53 26 37 39 33 38 42 40 37 32 35 34 61 58 60 56 42 11 7 19 16 53 20 21 19 21 7 17 10 9 25 10 13 40 56 75 71 72 58 63 75 84 91 93 89 85 81 85 83
67 57 50 47 39 31 31 39 39 36 38 37 37 18 8 21 42 32 36 18 24 30 28 12 24 7 45 22 9 13 19 9 11 11 28 10 13 77 66 103 81 48 51 74 71 64 79 82 90 90 90 82 85 82
41 36 30 34 27 24 25 21 25 23 23 28 10 11 12 15 15 17 14 13 18 10 20 31 47 9 27 20 14 23 10 12 13 11 19 11 8 47 113 123 99 82 69 68 73 76 77 78 82 78 79 76 74 68
27 21 20 17 16 7 9 15 19 22 2 13 11 6 9 11 9 9 9 7 7 10 13 18 21 30 11 14 8 14 12 13 14 26 13 10 20 92 90 82 73 76 80 93 96 101 107 100 98 93 88 82 76 69
34 34 30 21 13 9 8 10 13 15 16 11 5 4 5 9 12 8 9 8 5 11 31 31 22 35 22 21 5 12 15 10 19 14 11 10 35 21 33 42 48 42 48 64 78 80 83 83 80 77 71 61 63 62
19 17 17 15 13 7 5 7 8 17 12 8 9 6 7 6 7 5 2 4 9 23 30 39 16 14 21 12 5 12 8 10 11 17 14 6 18 18 4 4 12 28 46 50 54 55 60 59 57 51 51 44 47 54
7 11 13 11 8 10 14 13 6 7 7 6 6 8 9 16 21 16 14 8 22 36 44 31 24 16 10 8 9 5 11 10 11 10 5 20 28 27 25 10 5 15 18 21 25 29 33 37 41 43 36 33 34 36
6 2 20 11 7 5 1 4 11 9 7 13 8 6 17 4 9 15 33 11 34 46 25 11 10 10 12 10 10 15 18 12 5 8 29 39 37 33 37 27 16 27 30 27 28 31 34 35 37 37 33 33 32 28
5 9 9 3 5 1 2 1 5 8 5 5 5 19 12 11 10 11 24 29 39 23 3 1 10 7 15 10 12 13 11 9 30 42 42 41 48 50 44 33 27 34 34 30 31 31 36 35 30 33 32 30 28 31
11 9 13 11 4 2 2 4 2 4 11 18 9 19 20 26 18 18 30 36 20 15 14 6 9 14 7 9 10 10 19 50 43 47 58 56 53 40 42 42 39 42 38 32 32 34 36 30 28 24 27 30 33 36
18 19 15 9 3 3 4 8 10 8 15 10 14 18 17 13 28 32 39 23 9 14 8 11 11 8 7 5 15 42 50 49 60 72 66 47 27 47 46 43 43 40 36 35 33 35 29 22 22 23 29 33 37 36
16 15 13 9 6 6 9 12 11 12 9 13 21 16 11 11 30 27 41 32 25 13 15 10 6 12 21 43 48 53 61 58 57 62 61 53 50 51 45 44 44 42 41 36 29 26 20 20 24 27 31 33 35 35
10 12 7 3 10 21 16 14 16 12 11 11 18 13 10 13 22 33 28 27 22 15 6 12 29 44 47 53 44 41 48 42 47 47 60 74 59 53 48 41 40 40 42 37 36 24 17 21 21 26 30 31 32 32
11 9 11 21 18 14 19 28 12 14 12 10 15 15 12 8 15 20 17 32 13 11 22 34 47 56 61 54 43 35 37 42 47 44 40 42 51 52 46 40 39 43 36 29 30 24 17 16 16 23 30 34 33 31
8 13 21 29 16 26 12 24 14 21 11 14 18 9 8 11 21 17 11 11 9 29 41 45 53 49 48 40 39 38 38 44 48 45 43 46 46 41 35 30 26 33 34 20 20 19 14 10 15 24 29 35 39 40
22 21 23 21 32 14 19 20 16 16 16 10 10 9 10 15 27 11 6 4 22 41 49 61 63 65 54 45 46 45 46 47 45 37 32 43 50 36 25 24 19 20 24 21 17 17 8 11 21 29 37 41 47 52
19 30 21 18 25 20 14 12 12 10 7 10 11 8 9 19 6 7 5 19 45 55 64 67 63 55 52 59 56 50 41 42 43 44 35 42 46 36 25 19 19 27 22 13 8 9 5 19 28 34 39 44 51 55
18 24 14 24 14 11 8 10 9 8 6 10 9 16 13 6 9 5 5 35 40 57 65 64 62 65 59 53 63 64 55 40 32 27 28 31 37 39 36 34 25 19 19 15 15 15 22 28 35 42 49 53 56 58
14 10 16 17 11 11 9 7 6 6 9 10 7 9 7 10 6 8 28 35 55 59 52 43 42 45 48 51 46 42 38 26 19 18 22 27 28 30 34 38 38 35 23 13 14 21 31 41 47 51 57 57 55 54
11 19 5 29 13 15 3 5 6 8 5 14 12 11 6 6 6 20 28 52 50 49 43 35 33 34 35 37 42 48 39 28 16 7 11 21 26 23 22 25 27 30 25 15 23 32 40 47 54 58 59 61 59 52
7 31 16 12 11 8 11 8 9 11 17 8 5 4 6 7 17 25 45 43 40 41 43 42 39 33 32 36 43 52 52 49 56 59 57 55 52 45 38 34 33 38 45 43 39 41 45 51 56 58 61 64 65 63
16 34 13 13 6 6 7 14 14 19 12 10 8 9 11 14 14 27 44 41 38 35 37 41 44 45 47 48 48 53 57 59 64 62 54 53 48 43 45 46 47 49 52 54 57 61 62 66 70 72 72 72 69 68
21 19 11 7 7 7 24 25 14 14 10 8 9 10 13 13 14 18 33 36 30 30 30 33 39 45 48 54 54 50 55 55 56 58 49 49 50 50 52 52 54 55 58 62 65 67 67 69 69 67 65 64 62 60
12 11 10 6 8 15 19 25 14 9 6 6 6 8 8 7 7 16 28 36 32 33 32 32 34 37 41 41 39 41 42 44 46 53 52 49 49 47 46 48 49 49 50 52 56 58 58 61 62 61 60 58 55 54
10 11 8 10 10 9 14 26 6 13 8 7 6 10 9 6 6 12 26 32 32 33 34 32 31 30 33 36 34 32 33 36 35 35 39 41 40 39 40 41 41 39 39 44 49 49 51 52 55 54 53 51 50 48
Wind_Direction_850mb
283 285 285 280 275 274 272 270 264 259 265 267 262 257 255 258 243 240 243 239 226 237 230 212 205 185 174 184 167 144 119 175 163 184 189 184 205 198 185 161 175 167 171 186 187 215 270 159 126 188 214 234 216 197
286 285 289 286 278 273 271 273 269 268 260 264 261 256 251 255 257 257 258 236 237 228 236 238 231 229 224 226 203 169 191 158 170 172 194 165 192 168 171 230 172 214 195 179 196 210 211 179 207 215 224 238 223 221
280 281 284 292 281 274 271 271 269 267 267 268 263 261 253 251 251 247 265 253 253 254 259 238 229 234 229 230 227 182 216 187 192 157 141 192 208 157 179 235 136 235 220 227 104 221 234 210 230 242 243 247 255 250
275 275 277 278 284 276 271 271 269 266 265 266 267 258 256 260 261 252 257 261 245 229 228 248 251 233 234 219 221 218 225 198 195 169 155 159 198 190 206 244 205 194 162 199 256 262 289 255 242 253 254 258 261 264
275 273 273 273 272 275 272 269 268 266 263 264 264 258 252 255 256 263 260 262 236 243 267 216 233 244 229 223 220 218 217 188 169 168 185 190 184 157 188 58 248 192 179 195 229 184 213 243 253 262 255 259 268 269
282 275 269 266 267 273 272 275 267 261 258 258 259 255 251 255 258 264 274 273 253 232 263 241 241 232 225 220 219 214 212 191 183 168 189 197 190 181 168 202 246 226 221 221 232 238 249 257 253 255 264 267 269 263
278 274 268 263 266 268 267 271 268 260 254 250 249 248 251 252 245 239 223 185 112 226 239 238 238 203 214 203 209 208 199 198 198 192 191 159 171 183 211 226 250 228 231 231 237 242 252 249 253 264 266 271 270 266
272 265 263 260 265 273 272 256 259 253 242 241 243 248 250 243 245 249 252 243 258 287 252 209 218 165 183 174 164 192 186 199 204 194 165 158 137 186 228 239 248 243 242 242 236 239 244 258 258 261 263 264 264 263
273 261 256 256 259 275 241 244 252 253 248 248 243 246 241 242 249 252 263 259 263 229 282 259 173 190 175 158 157 138 151 177 196 207 187 150 156 200 226 243 249 243 232 240 244 243 250 251 256 259 261 265 266 267
259 252 248 243 252 242 239 248 247 249 247 242 234 191 176 234 265 247 248 221 208 222 207 265 303 185 174 155 154 129 159 192 191 208 152 215 220 236 241 239 243 244 237 236 237 236 242 243 250 258 261 268 269 274
216 216 226 215 208 239 252 234 235 234 226 192 140 156 220 258 252 206 210 223 193 196 200 225 230 246 197 175 163 193 161 164 195 182 181 196 235 236 239 241 241 245 245 242 244 247 255 262 266 266 271 272 274 273
106 133 152 170 180 172 239 232 206 199 173 127 139 203 258 215 246 245 187 253 211 209 203 206 204 185 227 176 146 173 187 178 200 145 183 192 239 237 242 245 249 242 242 247 250 256 260 260 264 268 270 272 273 278
89 101 109 109 99 113 132 123 157 170 171 148 151 220 243 189 222 228 204 258 180 360 17 333 217 173 181 238 181 172 187 188 131 170 188 214 249 264 265 263 257 247 244 253 255 260 264 266 269 268 271 278 280 277
76 80 100 118 111 92 129 139 163 174 165 166 162 247 186 248 247 237 90 15 15 350 354 339 311 211 172 191 187 172 151 136 185 175 201 225 28 352 324 72 213 224 234 242 251 261 268 271 272 275 275 277 273 272
61 68 82 48 6 354 212 186 180 195 177 198 195 214 222 234 273 296 2 40 6 345 338 333 287 241 170 169 176 172 168 190 187 176 169 13 5 353 344 359 324 283 251 251 265 275 273 273 271 270 268 269 264 261
149 82 40 33 37 58 145 222 228 203 207 194 225 307 325 24 318 41 9 31 348 345 349 310 272 249 207 156 168 188 170 184 174 12 349 347 344 345 340 342 338 303 295 282 282 287 289 276 276 268 259 252 243 240
228 85 9 13 55 158 295 131 191 200 252 236 128 49 23 54 35 58 13 349 344 334 70 298 294 343 299 318 129 16 22 4 328 327 333 333 332 331 331 336 336 311 300 293 290 285 284 280 264 258 241 227 220 217
44 12 346 351 348 37 79 169 287 357 55 23 40 21 48 41 12 27 6 356 6 355 344 43 335 33 30 352 335 348 323 321 321 319 320 325 331 338 337 331 327 323 317 310 303 293 284 278 266 242 216 207 205 205
2 355 349 351 356 118 77 45 35 77 42 50 63 37 57 68 28 25 16 27 51 54 76 48 45 22 348 357 320 321 318 317 316 317 319 333 333 325 330 332 328 326 325 320 309 294 279 267 253 219 205 203 200 199
336 346 353 8 173 113 73 42 47 59 47 12 23 34 64 48 14 12 18 34 50 52 44 43 37 337 303 302 306 304 299 308 310 313 319 327 334 335 338 339 339 338 334 328 321 310 288 267 243 221 203 199 205 199
354 23 26 43 60 59 67 29 44 37 10 48 7 31 47 29 19 9 15 17 58 38 30 348 323 314 310 307 309 312 308 313 303 300 301 313 330 333 336 341 339 342 338 338 337 322 296 264 235 222 210 197 192 191
51 66 62 52 56 58 59 24 21 7 20 9 18 19 35 25 359 13 3 41 59 21 345 325 324 322 323 325 328 328 325 324 324 321 325 327 324 332 332 340 344 341 343 339 332 322 292 269 236 218 199 186 180 175
70 50 55 34 58 36 11 18 44 18 19 355 2 29 22 9 354 1 73 63 52 350 346 340 339 341 334 336 337 339 343 337 337 340 341 340 339 335 329 336 345 337 339 351 338 331 300 240 207 196 186 171 165 159
61 51 33 34 24 9 355 22 20 4 19 16 0 10 3 341 342 48 74 71 347 345 348 350 350 347 350 352 350 349 345 339 340 347 353 350 343 347 344 342 344 349 350 4 4 344 314 174 174 175 169 164 153 150
64 18 29 4 13 14 21 8 351 17 11 349 358 359 346 338 20 48 8 339 339 346 348 348 349 344 334 340 344 343 345 344 338 341 3 356 351 359 14 18 17 12 10 13 32 53 127 153 161 161 157 153 146 140
65 25 38 5 0 26 339 10 16 351 332 350 3 333 336 344 39 339 331 337 338 338 344 345 340 337 343 353 339 340 351 353 346 348 3 1 4 8 13 16 18 30 43 62 102 141 146 146 147 147 142 141 142 141
48 342 354 2 333 339 354 6 354 47 5 6 341 336 5 36 315 285 323 343 335 348 349 345 342 342 342 345 351 2 357 344 342 352 6 13 17 20 26 27 26 21 33 70 128 150 152 148 146 142 136 132 130 131
52 10 1 331 2 9 9 359 34 9 356 345 333 16 111 204 266 326 328 342 346 351 356 360 359 1 1 4 16 23 29 42 45 45 61 52 50 54 64 68 71 67 67 97 132 141 143 140 137 134 131 125 120 117
10 349 349 340 355 24 40 24 4 6 343 352 330 304 283 285 322 336 353 354 357 358 6 13 25 33 39 38 38 43 41 54 57 52 49 43 45 49 62 69 78 87 95 100 109 114 120 122 120 118 115 113 111 112
356 356 2 359 30 356 345 356 327 331 335 329 310 301 288 293 328 359 4 3 6 10 12 15 22 26 30 36 41 46 47 47 49 46 38 39 40 50 64 74 81 89 96 100 104 107 110 111 110 109 108 109 109 107
343 350 334 313 289 316 337 338 340 339 338 322 315 277 287 308 326 350 2 5 5 10 17 24 28 27 32 36 38 43 48 51 54 55 49 54 58 62 67 76 83 89 95 100 103 105 106 105 104 104 104 104 103 102
332 351 346 331 303 316 329 348 333 321 295 295 284 310 310 289 289 335 355 4 11 17 21 22 27 31 36 39 37 39 41 45 49 58 57 57 60 64 70 75 79 85 91 95 97 98 100 100 101 101 101 100 99 98
322 345 334 316 308 325 334 339 297 317 260 272 296 332 339 314 291 348 355 3 9 13 17 21 24 27 33 35 35 37 43 50 55 58 67 65 64 66 71 75 78 83 88 92 94 96 96 96 96 96 95 96 96 95